Wind_Speed
3 3 3 2 1 0 0 1 1 1 2 2 2 2 2 2 2 2 2 3 3 4 3 3 4 4 4 4 5 5 5 5 6 6 6 7 7 7 7 7 8 7 8 9 10 11 11 10 10
3 3 2 2 1 0 1 1 2 2 2 2 2 2 2 3 3 3 3 3 3 3 3 3 4 5 5 5 6 6 6 6 6 6 7 7 7 8 8 9 9 9 8 8 8 10 10 10 10
4 3 3 2 1 1 1 1 2 2 2 2 2 2 2 3 3 3 3 3 3 3 3 3 4 5 5 5 6 7 7 7 7 7 7 8 8 8 9 9 9 8 7 7 6 8 9 9 10
4 4 3 2 2 1 1 1 2 2 3 3 3 2 3 3 3 3 3 3 3 3 4 4 4 5 5 5 5 6 7 7 7 7 7 8 8 8 9 9 8 7 7 7 7 7 8 9 9
4 3 3 2 2 1 1 2 2 2 3 3 3 3 3 3 3 3 3 3 4 4 4 4 5 5 5 5 5 5 6 6 7 7 7 8 8 9 9 8 7 7 7 7 8 8 9 10 10
4 3 3 2 2 2 2 2 2 2 3 3 3 3 3 3 3 3 3 3 4 3 4 4 4 5 4 4 4 4 5 6 6 6 7 7 7 8 8 7 7 8 8 8 9 9 9 10 10
4 4 3 3 3 2 2 2 2 3 3 3 3 3 3 3 3 3 3 4 4 4 4 3 4 4 4 4 4 4 4 5 5 5 5 5 6 7 7 7 7 8 8 8 8 8 8 9 10
4 5 4 3 3 3 3 3 3 3 3 3 2 3 3 3 3 3 3 4 4 4 4 4 5 5 5 5 4 4 4 4 4 4 5 5 5 6 7 7 6 7 8 8 8 8 8 9 10
4 4 4 3 3 4 4 4 4 3 3 3 2 2 2 3 3 3 3 4 4 4 4 4 5 5 5 4 4 4 4 3 4 4 5 5 6 6 6 7 7 7 7 7 8 9 9 9 10
3 3 3 3 3 3 4 4 4 4 3 2 2 2 3 3 4 4 4 4 4 5 4 4 5 5 5 4 4 4 4 4 4 4 5 5 5 6 6 7 7 7 7 8 8 8 9 9 9
3 3 3 3 3 4 4 4 5 4 4 3 3 3 3 4 4 4 5 4 4 5 5 5 5 5 5 4 4 4 4 4 4 5 4 5 5 6 6 7 7 8 7 8 8 8 8 9 9
2 3 3 3 3 4 4 5 4 4 4 4 4 4 4 4 5 5 5 5 5 5 5 5 5 4 5 5 5 4 4 4 4 4 5 5 5 6 6 7 7 7 8 8 8 8 8 8 8
2 3 3 3 3 4 4 5 5 4 4 4 4 4 4 5 5 5 5 5 5 5 5 5 5 5 5 4 4 4 4 4 4 4 5 5 5 6 5 6 6 7 8 8 8 8 8 8 7
2 2 2 3 3 4 4 5 5 4 5 5 5 5 4 5 6 5 5 5 5 5 5 5 5 5 4 4 4 4 4 4 4 5 5 5 5 5 6 6 5 6 7 8 7 8 8 7 7
3 3 3 4 4 4 4 5 5 5 4 5 5 5 6 6 6 6 6 5 5 5 5 5 5 5 4 4 4 4 4 4 5 5 5 6 6 6 6 5 5 5 6 7 7 7 7 7 7
4 4 4 4 4 4 4 5 5 5 5 5 5 6 6 6 6 6 6 5 5 5 5 5 5 4 4 5 4 5 4 4 5 5 5 5 5 6 6 5 5 6 6 6 6 6 6 6 6
5 5 5 5 5 4 5 5 6 5 5 5 5 6 7 7 6 6 6 5 5 5 5 5 5 5 5 5 5 5 5 5 5 5 6 6 5 5 6 5 5 6 6 6 6 6 5 5 6
5 6 6 6 6 5 5 5 6 6 5 5 5 6 7 7 7 6 6 6 5 5 5 5 5 5 5 5 5 5 5 5 5 5 6 6 5 6 6 6 6 6 6 6 6 6 6 6 6
7 6 6 7 7 6 6 6 6 6 6 5 5 6 7 7 7 7 7 6 6 6 6 6 5 5 5 5 6 5 5 5 5 5 5 5 5 5 6 6 6 6 6 6 6 6 6 7 7
7 7 8 8 8 8 7 7 7 7 7 6 6 6 7 8 7 7 7 7 6 6 7 6 6 6 6 6 7 6 5 5 5 5 4 5 5 5 5 5 5 5 5 6 6 6 7 7 7
8 8 9 9 9 8 7 7 7 8 7 7 7 8 8 8 8 8 7 7 7 8 8 7 6 6 6 7 7 7 6 6 6 5 5 5 5 5 4 5 5 6 6 6 7 7 7 7 7
9 9 10 9 9 9 8 8 8 8 8 8 9 9 9 8 8 8 8 8 8 8 8 8 7 7 8 8 7 7 6 6 5 5 5 5 5 5 5 5 5 6 6 7 7 7 7 8 9
10 10 10 10 10 9 9 9 9 9 9 9 9 10 9 9 9 9 9 9 9 8 8 8 7 8 8 8 8 7 7 7 6 6 5 5 5 5 5 5 5 5 6 6 6 7 8 8 9
11 11 11 10 11 11 10 10 10 10 10 10 10 10 10 9 9 9 9 9 9 9 9 8 8 8 8 8 7 7 7 7 7 7 6 6 6 5 5 5 6 6 6 6 7 8 9 9 9
13 12 12 11 11 12 11 11 11 11 10 11 11 11 10 10 10 9 9 9 9 10 10 9 8 8 8 8 8 8 8 8 8 8 8 7 7 7 7 7 7 7 7 7 8 9 9 9 10
15 14 14 14 13 13 12 12 12 11 11 11 12 11 11 10 11 10 10 10 10 10 10 9 9 9 8 9 9 9 9 9 9 9 9 8 8 8 9 8 8 8 8 8 9 9 9 9 9
16 15 16 16 15 14 14 13 13 13 12 12 12 12 12 11 11 11 11 10 10 10 10 10 9 9 9 10 9 9 9 9 9 10 9 9 9 9 9 10 10 9 9 9 10 10 9 9 8
17 16 17 17 16 16 15 14 14 13 14 13 13 13 13 13 12 12 11 11 11 11 11 11 10 10 10 10 10 10 10 10 9 9 9 9 9 9 10 10 10 10 10 10 10 10 10 9 9
17 17 17 18 18 18 17 16 15 15 14 14 13 13 14 14 14 13 12 12 12 11 11 11 11 11 11 10 10 10 10 10 10 10 10 10 9 10 10 11 11 12 12 11 11 10 10 10 11
19 19 19 19 19 20 20 18 17 17 16 15 15 15 15 15 14 14 13 13 13 12 12 12 12 12 12 11 12 11 11 11 11 11 11 11 10 11 11 12 12 12 13 12 12 11 11 11 12
Wind_Direction
91 83 83 79 81 92 38 346 323 314 325 330 337 341 347 344 326 298 306 315 315 318 309 282 275 274 274 273 266 267 259 252 255 256 252 244 240 242 240 247 253 257 262 264 257 245 236 235 231
79 75 77 74 66 41 338 319 308 308 314 326 328 334 343 338 338 325 309 308 314 314 309 289 285 281 281 274 267 268 258 257 262 262 256 248 246 247 247 250 254 260 267 270 260 240 231 230 233
75 72 72 70 66 36 2 339 324 315 316 328 330 327 329 334 332 325 318 312 308 309 316 307 312 300 288 280 271 265 259 258 261 268 262 256 254 251 248 252 252 256 261 261 251 236 233 233 230
74 69 69 70 62 38 358 339 321 314 309 315 318 319 327 332 329 329 327 313 313 317 318 312 311 308 298 294 280 269 266 264 263 266 264 256 253 252 250 250 248 255 256 251 246 236 235 232 231
69 64 65 58 43 30 6 341 323 322 316 318 318 321 334 337 337 336 331 325 322 322 318 311 308 303 303 303 293 274 266 267 263 265 263 258 252 248 248 247 244 252 253 250 252 249 241 239 236
63 64 59 49 39 30 7 338 332 328 319 325 330 333 337 342 341 342 336 334 334 325 317 313 314 311 305 298 298 288 271 264 261 262 261 259 255 252 248 248 251 254 249 251 249 247 245 242 238
63 59 51 45 35 23 8 349 340 335 335 340 345 348 343 338 341 332 329 329 334 330 316 308 313 313 307 297 295 294 284 273 266 265 265 264 258 255 252 253 257 255 252 248 246 245 246 244 242
64 54 47 41 33 28 23 14 7 358 356 355 353 356 354 354 347 337 336 334 334 333 325 315 311 311 307 300 298 298 291 283 275 268 266 268 264 257 251 253 255 257 255 255 254 250 250 244 243
64 59 50 45 36 30 26 23 20 12 5 2 358 357 3 2 346 335 334 334 333 334 333 329 326 320 313 304 300 297 293 289 283 275 272 270 264 256 249 249 254 257 256 256 253 253 252 249 249
60 51 43 42 35 27 22 21 18 14 14 12 8 357 351 343 334 328 326 327 329 328 331 331 328 324 316 306 299 294 292 287 281 278 274 271 264 256 253 251 255 259 258 256 258 253 256 253 253
49 45 41 34 25 15 15 18 18 19 22 13 359 347 330 326 332 329 325 327 327 328 328 329 328 325 318 307 305 303 297 290 282 274 266 271 266 263 260 256 257 262 265 264 263 263 263 257 256
30 26 25 19 11 3 2 3 9 11 11 5 353 340 330 328 329 332 331 328 326 328 328 332 335 328 320 306 302 296 293 294 283 272 274 275 271 265 264 260 261 264 267 265 266 267 269 261 256
354 2 6 7 2 354 356 356 356 350 347 350 351 346 340 333 334 335 334 327 325 328 331 335 337 330 323 314 305 301 294 292 279 275 278 281 280 270 271 267 263 265 269 269 270 271 273 260 258
332 335 340 347 352 352 352 350 347 344 342 341 340 340 337 331 328 331 331 327 324 326 331 332 334 332 327 318 312 306 300 295 285 284 290 286 285 275 270 268 268 267 269 270 273 278 275 266 259
313 322 327 334 338 344 342 337 337 337 333 332 330 330 327 328 324 323 322 320 317 319 325 326 330 333 337 329 318 309 298 293 290 290 291 288 286 276 273 271 271 274 272 273 271 279 283 273 267
293 305 314 323 324 326 328 324 329 330 326 323 325 328 323 319 315 316 318 318 313 311 313 316 322 327 330 328 319 310 304 301 298 299 295 287 284 275 271 271 272 275 280 288 280 281 286 283 275
287 293 301 309 311 310 310 313 319 326 323 317 318 321 325 319 315 313 312 315 315 310 311 315 318 320 321 324 325 312 307 307 303 300 296 291 284 278 276 275 277 275 278 286 289 285 284 291 283
277 280 290 298 301 303 303 306 310 316 317 313 314 316 321 322 316 315 312 309 309 307 308 315 315 316 319 323 324 316 313 310 304 301 301 298 290 284 282 283 282 282 278 279 284 287 289 293 291
268 273 281 288 293 297 300 302 304 307 309 310 313 313 311 315 317 315 315 311 305 303 302 309 313 318 325 328 326 318 315 312 306 301 301 298 294 287 285 281 281 281 279 280 284 285 289 288 287
267 274 279 283 288 291 298 300 299 298 301 304 304 308 307 307 309 309 310 310 305 300 300 301 306 310 315 320 320 315 311 306 304 301 307 304 298 289 284 281 279 275 278 282 284 288 291 289 287
270 275 278 286 290 292 295 297 296 295 296 299 302 303 306 307 301 303 304 305 305 303 303 305 305 304 308 312 313 312 307 303 302 298 302 308 302 286 283 275 270 274 279 284 285 287 288 290 290
269 274 276 281 287 291 294 292 291 292 297 298 300 301 303 303 301 301 301 302 302 302 302 302 305 303 307 311 308 312 307 303 305 306 307 305 300 288 287 280 277 279 284 288 292 291 288 289 291
269 272 273 276 281 286 289 287 284 288 292 293 295 296 296 297 298 298 299 300 301 298 297 296 299 300 303 306 306 308 310 305 303 303 306 308 308 303 300 294 289 288 289 293 295 296 290 291 293
268 269 270 272 276 279 282 283 283 285 288 290 291 292 291 290 292 292 293 295 295 295 296 295 293 296 301 306 307 308 311 312 308 301 302 304 302 304 303 301 297 293 292 294 297 298 292 289 288
265 268 271 274 274 277 279 278 279 281 284 286 288 288 286 286 287 289 288 289 290 290 292 292 291 293 297 299 302 304 305 305 306 302 298 297 295 295 295 297 297 292 291 292 295 296 296 292 290
263 265 268 272 274 276 276 276 277 278 281 283 285 285 284 285 286 286 284 284 285 286 287 287 288 290 294 297 299 301 301 300 297 296 295 290 289 291 291 295 295 292 292 293 294 294 294 293 295
262 263 265 268 270 272 273 274 274 276 277 281 282 282 283 283 285 285 282 281 281 281 282 283 285 288 290 292 293 295 300 301 296 292 289 286 286 289 291 291 292 292 293 291 290 292 292 294 295
261 262 263 266 269 271 272 272 274 274 276 279 281 281 280 280 282 283 281 278 278 278 279 278 282 285 286 286 289 292 296 299 299 295 290 287 288 290 289 289 289 292 295 294 291 290 291 291 293
261 261 261 263 266 268 270 270 270 271 274 278 279 280 278 278 280 282 279 277 277 278 279 280 281 282 283 285 287 291 293 294 292 294 291 286 286 288 287 287 288 289 289 289 288 287 289 290 291
261 261 261 262 264 264 266 268 267 269 272 274 275 275 275 275 278 279 276 276 277 278 279 281 278 277 279 285 285 287 289 290 290 291 291 287 285 286 287 287 287 286 285 285 283 284 285 286 288
Height
5889 5889 5889 5890 5891 5891 5889 5889 5889 5889 5888 5887 5887 5886 5885 5885 5885 5887 5884 5882 5881 5880 5879 5878 5877 5877 5876 5876 5876 5876 5876 5875 5875 5874 5874 5874 5874 5873 5873 5873 5872 5872 5872 5870 5869 5870 5872 5873 5874
5889 5889 5890 5891 5890 5890 5890 5889 5888 5888 5888 5887 5886 5886 5885 5884 5883 5883 5881 5881 5880 5879 5878 5877 5876 5876 5875 5875 5875 5875 5874 5874 5874 5873 5873 5873 5873 5872 5872 5871 5871 5871 5870 5867 5865 5866 5869 5871 5872
5889 5890 5891 5890 5890 5890 5890 5889 5888 5887 5887 5886 5886 5885 5884 5884 5883 5881 5881 5880 5879 5878 5877 5877 5876 5875 5874 5874 5873 5873 5873 5873 5872 5872 5872 5872 5871 5871 5871 5870 5870 5870 5869 5867 5866 5867 5868 5869 5870
5890 5891 5891 5890 5889 5889 5889 5888 5887 5887 5886 5886 5885 5884 5883 5883 5882 5881 5880 5879 5878 5877 5877 5876 5875 5874 5873 5872 5872 5872 5871 5871 5871 5871 5870 5870 5870 5870 5870 5869 5869 5869 5868 5867 5867 5867 5867 5868 5868
5890 5890 5890 5890 5889 5889 5888 5888 5887 5886 5886 5885 5884 5883 5883 5882 5881 5880 5879 5878 5878 5877 5876 5875 5874 5873 5872 5872 5871 5870 5870 5870 5870 5869 5869 5869 5868 5868 5868 5868 5868 5868 5867 5867 5866 5867 5867 5867 5868
5891 5891 5890 5890 5889 5889 5888 5887 5887 5886 5885 5884 5883 5883 5882 5881 5880 5880 5879 5878 5877 5876 5875 5874 5873 5873 5872 5871 5870 5870 5869 5869 5868 5868 5868 5867 5867 5867 5867 5866 5866 5866 5866 5866 5865 5866 5866 5866 5866
5892 5891 5890 5890 5889 5888 5888 5887 5886 5885 5884 5884 5883 5882 5881 5881 5880 5879 5878 5877 5876 5875 5875 5874 5873 5872 5871 5870 5869 5869 5868 5867 5867 5867 5866 5866 5866 5866 5865 5865 5865 5865 5864 5864 5864 5864 5864 5864 5865
5891 5891 5890 5889 5889 5888 5888 5886 5885 5884 5884 5883 5882 5882 5881 5881 5879 5879 5878 5877 5876 5875 5874 5873 5872 5871 5870 5869 5868 5868 5867 5866 5866 5866 5865 5865 5865 5864 5864 5864 5864 5863 5863 5862 5862 5862 5862 5863 5863
5891 5892 5890 5890 5889 5888 5887 5886 5885 5884 5883 5882 5882 5881 5881 5880 5879 5878 5877 5876 5876 5875 5874 5872 5872 5870 5869 5869 5868 5867 5866 5865 5865 5865 5864 5864 5863 5863 5863 5863 5862 5862 5861 5861 5860 5860 5860 5860 5861
5891 5891 5891 5890 5889 5888 5887 5886 5885 5884 5883 5882 5882 5881 5880 5879 5879 5878 5877 5876 5875 5874 5873 5872 5871 5870 5869 5868 5867 5866 5865 5864 5864 5863 5863 5862 5862 5862 5861 5861 5861 5860 5860 5860 5859 5859 5859 5859 5859
5891 5891 5890 5889 5888 5888 5887 5886 5885 5884 5883 5882 5881 5880 5880 5879 5878 5877 5876 5875 5874 5873 5872 5871 5870 5869 5868 5867 5866 5865 5864 5863 5863 5862 5862 5861 5861 5860 5860 5860 5860 5859 5858 5858 5857 5857 5857 5857 5857
5891 5890 5890 5889 5888 5887 5887 5886 5885 5884 5883 5882 5881 5880 5879 5878 5877 5876 5875 5874 5874 5873 5872 5870 5869 5868 5867 5866 5865 5864 5863 5863 5862 5861 5861 5860 5860 5859 5859 5858 5858 5857 5857 5856 5856 5855 5855 5855 5855
5891 5890 5890 5889 5888 5887 5886 5885 5885 5883 5882 5881 5880 5879 5878 5877 5876 5875 5875 5874 5873 5872 5871 5870 5869 5867 5866 5865 5864 5863 5862 5862 5861 5860 5859 5859 5858 5858 5858 5857 5856 5856 5855 5854 5854 5854 5853 5853 5853
5890 5890 5889 5888 5888 5887 5886 5885 5884 5883 5882 5881 5880 5879 5878 5877 5876 5875 5874 5873 5872 5871 5870 5869 5868 5867 5865 5864 5863 5863 5861 5861 5860 5859 5858 5858 5857 5857 5856 5856 5855 5854 5853 5853 5853 5852 5852 5851 5851
5889 5889 5889 5888 5887 5886 5886 5885 5884 5883 5882 5881 5879 5878 5878 5877 5875 5874 5873 5873 5872 5871 5869 5868 5867 5866 5865 5864 5863 5862 5861 5860 5859 5858 5857 5857 5856 5855 5855 5854 5854 5853 5852 5852 5851 5851 5850 5850 5850
5889 5889 5888 5888 5886 5886 5887 5885 5883 5882 5881 5880 5879 5878 5877 5876 5875 5874 5873 5872 5871 5870 5869 5868 5867 5866 5864 5863 5862 5861 5860 5859 5858 5857 5856 5856 5855 5854 5854 5853 5853 5852 5851 5851 5850 5850 5849 5849 5848
5887 5888 5887 5887 5886 5885 5885 5884 5883 5881 5880 5879 5878 5877 5876 5875 5874 5873 5872 5871 5870 5869 5868 5867 5866 5865 5864 5863 5861 5860 5859 5858 5857 5856 5855 5854 5853 5853 5852 5852 5851 5851 5850 5850 5849 5848 5848 5847 5847
5886 5886 5886 5885 5884 5884 5883 5883 5881 5880 5880 5879 5877 5876 5875 5874 5873 5872 5871 5870 5869 5868 5867 5866 5865 5864 5863 5862 5861 5859 5858 5857 5856 5855 5854 5853 5852 5851 5851 5850 5850 5849 5849 5849 5848 5847 5847 5846 5846
5885 5885 5884 5884 5883 5882 5882 5881 5880 5879 5878 5878 5877 5876 5874 5873 5872 5871 5870 5869 5868 5867 5866 5865 5864 5863 5862 5861 5860 5858 5857 5856 5855 5854 5853 5852 5851 5850 5849 5849 5848 5848 5848 5848 5847 5846 5846 5845 5844
5883 5883 5883 5882 5881 5881 5880 5880 5879 5878 5877 5876 5876 5875 5873 5872 5871 5870 5869 5868 5867 5866 5865 5864 5863 5862 5861 5860 5859 5857 5856 5855 5854 5853 5852 5851 5849 5849 5848 5847 5847 5847 5847 5846 5846 5845 5844 5844 5843
5880 5881 5880 5880 5880 5879 5879 5879 5878 5877 5876 5875 5874 5873 5872 5871 5870 5869 5868 5867 5866 5865 5864 5863 5862 5861 5860 5859 5858 5856 5855 5854 5853 5851 5851 5849 5848 5847 5847 5846 5846 5845 5845 5844 5844 5843 5843 5842 5841
5878 5878 5878 5878 5878 5877 5878 5877 5876 5875 5874 5873 5872 5871 5871 5870 5868 5867 5866 5865 5864 5863 5862 5861 5860 5859 5859 5857 5856 5855 5854 5853 5851 5850 5849 5848 5847 5846 5845 5844 5844 5844 5843 5843 5842 5841 5841 5840 5839
5875 5875 5876 5875 5875 5876 5875 5875 5875 5873 5872 5871 5871 5869 5868 5868 5867 5865 5864 5863 5862 5861 5860 5860 5859 5858 5857 5856 5855 5853 5852 5851 5850 5849 5848 5847 5846 5845 5844 5843 5843 5842 5841 5841 5840 5840 5839 5838 5837
5872 5873 5873 5873 5873 5873 5873 5873 5873 5871 5870 5869 5868 5867 5866 5865 5865 5863 5862 5861 5860 5859 5859 5858 5857 5856 5855 5854 5853 5851 5850 5849 5848 5847 5846 5845 5844 5844 5843 5842 5841 5841 5840 5839 5838 5838 5836 5835 5834
5869 5870 5871 5870 5870 5871 5870 5869 5870 5868 5867 5867 5866 5865 5864 5863 5862 5861 5860 5859 5858 5857 5856 5856 5855 5854 5853 5852 5851 5849 5848 5847 5846 5845 5844 5844 5843 5842 5841 5840 5840 5839 5838 5837 5836 5835 5834 5833 5832
5865 5867 5868 5868 5867 5867 5867 5866 5867 5865 5864 5864 5863 5862 5861 5860 5859 5858 5858 5857 5856 5855 5854 5853 5852 5852 5851 5850 5849 5848 5846 5845 5844 5843 5842 5842 5841 5840 5839 5838 5837 5836 5835 5834 5833 5833 5831 5830 5829
5861 5862 5863 5863 5863 5863 5863 5863 5863 5862 5861 5860 5859 5859 5858 5857 5856 5855 5854 5854 5853 5852 5852 5851 5850 5849 5848 5847 5846 5845 5844 5843 5842 5841 5840 5839 5838 5838 5837 5836 5835 5834 5833 5832 5831 5830 5829 5828 5827
5857 5857 5858 5858 5858 5859 5859 5859 5859 5858 5858 5857 5856 5855 5854 5854 5853 5852 5851 5850 5850 5849 5849 5848 5847 5846 5845 5844 5843 5842 5842 5840 5839 5838 5837 5836 5835 5835 5834 5833 5832 5831 5830 5829 5828 5827 5826 5825 5825
5852 5852 5852 5853 5854 5854 5854 5857 5855 5854 5854 5853 5853 5852 5851 5850 5849 5849 5848 5847 5847 5846 5846 5845 5844 5843 5842 5841 5840 5840 5839 5838 5836 5835 5834 5833 5832 5832 5831 5830 5829 5828 5827 5826 5825 5824 5824 5823 5822
5846 5847 5847 5848 5848 5848 5849 5853 5850 5849 5849 5849 5849 5848 5847 5847 5846 5845 5845 5844 5844 5843 5842 5841 5841 5840 5839 5838 5837 5837 5836 5834 5833 5832 5831 5830 5829 5828 5827 5826 5825 5824 5823 5823 5822 5821 5821 5820 5819